Index of /20260411/WXO-DD/model_gdps/15km/12/000
Name Last modified Size Description
Parent Directory -
20260411T12Z_MSC_GDPS_AbsoluteVorticity_IsbL-0200_LatLon0.15_PT000H.grib2 2026-04-11 16:08 1.2M
20260411T12Z_MSC_GDPS_AbsoluteVorticity_IsbL-0250_LatLon0.15_PT000H.grib2 2026-04-11 16:08 1.3M
20260411T12Z_MSC_GDPS_AbsoluteVorticity_IsbL-0500_LatLon0.15_PT000H.grib2 2026-04-11 16:08 1.5M
20260411T12Z_MSC_GDPS_AbsoluteVorticity_IsbL-0700_LatLon0.15_PT000H.grib2 2026-04-11 16:08 1.6M
20260411T12Z_MSC_GDPS_AbsoluteVorticity_IsbL-0850_LatLon0.15_PT000H.grib2 2026-04-11 16:08 1.6M
20260411T12Z_MSC_GDPS_AirTemp_AGL-120m_LatLon0.15_PT000H.grib2 2026-04-11 16:08 894K
20260411T12Z_MSC_GDPS_AirTemp_AGL-2m_LatLon0.15_PT000H.grib2 2026-04-11 16:08 1.0M
20260411T12Z_MSC_GDPS_AirTemp_AGL-40m_LatLon0.15_PT000H.grib2 2026-04-11 16:08 911K
20260411T12Z_MSC_GDPS_AirTemp_AGL-80m_LatLon0.15_PT000H.grib2 2026-04-11 16:08 903K
20260411T12Z_MSC_GDPS_AirTemp_IsbL-0001_LatLon0.15_PT000H.grib2 2026-04-11 16:08 645K
20260411T12Z_MSC_GDPS_AirTemp_IsbL-0005_LatLon0.15_PT000H.grib2 2026-04-11 16:08 686K
20260411T12Z_MSC_GDPS_AirTemp_IsbL-0010_LatLon0.15_PT000H.grib2 2026-04-11 16:08 762K
20260411T12Z_MSC_GDPS_AirTemp_IsbL-0020_LatLon0.15_PT000H.grib2 2026-04-11 16:08 707K
20260411T12Z_MSC_GDPS_AirTemp_IsbL-0030_LatLon0.15_PT000H.grib2 2026-04-11 16:08 752K
20260411T12Z_MSC_GDPS_AirTemp_IsbL-0050_LatLon0.15_PT000H.grib2 2026-04-11 16:08 818K
20260411T12Z_MSC_GDPS_AirTemp_IsbL-0100_LatLon0.15_PT000H.grib2 2026-04-11 16:08 948K
20260411T12Z_MSC_GDPS_AirTemp_IsbL-0150_LatLon0.15_PT000H.grib2 2026-04-11 16:08 1.0M
20260411T12Z_MSC_GDPS_AirTemp_IsbL-0175_LatLon0.15_PT000H.grib2 2026-04-11 16:08 1.0M
20260411T12Z_MSC_GDPS_AirTemp_IsbL-0200_LatLon0.15_PT000H.grib2 2026-04-11 16:08 1.0M
20260411T12Z_MSC_GDPS_AirTemp_IsbL-0225_LatLon0.15_PT000H.grib2 2026-04-11 16:08 1.0M
20260411T12Z_MSC_GDPS_AirTemp_IsbL-0250_LatLon0.15_PT000H.grib2 2026-04-11 16:08 1.0M
20260411T12Z_MSC_GDPS_AirTemp_IsbL-0275_LatLon0.15_PT000H.grib2 2026-04-11 16:08 1.0M
20260411T12Z_MSC_GDPS_AirTemp_IsbL-0300_LatLon0.15_PT000H.grib2 2026-04-11 16:08 1.0M
20260411T12Z_MSC_GDPS_AirTemp_IsbL-0350_LatLon0.15_PT000H.grib2 2026-04-11 16:08 945K
20260411T12Z_MSC_GDPS_AirTemp_IsbL-0400_LatLon0.15_PT000H.grib2 2026-04-11 16:08 960K
20260411T12Z_MSC_GDPS_AirTemp_IsbL-0450_LatLon0.15_PT000H.grib2 2026-04-11 16:08 1.0M
20260411T12Z_MSC_GDPS_AirTemp_IsbL-0500_LatLon0.15_PT000H.grib2 2026-04-11 16:08 1.0M
20260411T12Z_MSC_GDPS_AirTemp_IsbL-0550_LatLon0.15_PT000H.grib2 2026-04-11 16:08 1.0M
20260411T12Z_MSC_GDPS_AirTemp_IsbL-0600_LatLon0.15_PT000H.grib2 2026-04-11 16:08 907K
20260411T12Z_MSC_GDPS_AirTemp_IsbL-0650_LatLon0.15_PT000H.grib2 2026-04-11 16:08 935K
20260411T12Z_MSC_GDPS_AirTemp_IsbL-0700_LatLon0.15_PT000H.grib2 2026-04-11 16:08 968K
20260411T12Z_MSC_GDPS_AirTemp_IsbL-0750_LatLon0.15_PT000H.grib2 2026-04-11 16:08 1.0M
20260411T12Z_MSC_GDPS_AirTemp_IsbL-0800_LatLon0.15_PT000H.grib2 2026-04-11 16:08 1.1M
20260411T12Z_MSC_GDPS_AirTemp_IsbL-0850_LatLon0.15_PT000H.grib2 2026-04-11 16:08 1.1M
20260411T12Z_MSC_GDPS_AirTemp_IsbL-0875_LatLon0.15_PT000H.grib2 2026-04-11 16:08 1.2M
20260411T12Z_MSC_GDPS_AirTemp_IsbL-0900_LatLon0.15_PT000H.grib2 2026-04-11 16:08 1.2M
20260411T12Z_MSC_GDPS_AirTemp_IsbL-0925_LatLon0.15_PT000H.grib2 2026-04-11 16:08 1.1M
20260411T12Z_MSC_GDPS_AirTemp_IsbL-0950_LatLon0.15_PT000H.grib2 2026-04-11 16:08 1.1M
20260411T12Z_MSC_GDPS_AirTemp_IsbL-0970_LatLon0.15_PT000H.grib2 2026-04-11 16:08 1.1M
20260411T12Z_MSC_GDPS_AirTemp_IsbL-0985_LatLon0.15_PT000H.grib2 2026-04-11 16:08 1.1M
20260411T12Z_MSC_GDPS_AirTemp_IsbL-1000_LatLon0.15_PT000H.grib2 2026-04-11 16:08 1.1M
20260411T12Z_MSC_GDPS_AirTemp_IsbL-1015_LatLon0.15_PT000H.grib2 2026-04-11 16:08 1.1M
20260411T12Z_MSC_GDPS_Albedo_Sfc_LatLon0.15_PT000H.grib2 2026-04-11 16:08 248K
20260411T12Z_MSC_GDPS_CAPE_Sfc_LatLon0.15_PT000H.grib2 2026-04-11 16:08 3.8M
20260411T12Z_MSC_GDPS_CIN_Sfc_LatLon0.15_PT000H.grib2 2026-04-11 16:08 2.8M
20260411T12Z_MSC_GDPS_CloudWater_EAtm_LatLon0.15_PT000H.grib2 2026-04-11 16:08 525K
20260411T12Z_MSC_GDPS_ConvectivePrecip-Accum_Sfc_LatLon0.15_PT000H.grib2 2026-04-11 16:08 205
20260411T12Z_MSC_GDPS_DewPointDepression_AGL-2m_LatLon0.15_PT000H.grib2 2026-04-11 16:08 794K
20260411T12Z_MSC_GDPS_DewPointDepression_IsbL-0010_LatLon0.15_PT000H.grib2 2026-04-11 16:08 2.6K
20260411T12Z_MSC_GDPS_DewPointDepression_IsbL-0020_LatLon0.15_PT000H.grib2 2026-04-11 16:08 64K
20260411T12Z_MSC_GDPS_DewPointDepression_IsbL-0030_LatLon0.15_PT000H.grib2 2026-04-11 16:08 82K
20260411T12Z_MSC_GDPS_DewPointDepression_IsbL-0050_LatLon0.15_PT000H.grib2 2026-04-11 16:08 353K
20260411T12Z_MSC_GDPS_DewPointDepression_IsbL-0100_LatLon0.15_PT000H.grib2 2026-04-11 16:08 367K
20260411T12Z_MSC_GDPS_DewPointDepression_IsbL-0150_LatLon0.15_PT000H.grib2 2026-04-11 16:08 442K
20260411T12Z_MSC_GDPS_DewPointDepression_IsbL-0175_LatLon0.15_PT000H.grib2 2026-04-11 16:08 518K
20260411T12Z_MSC_GDPS_DewPointDepression_IsbL-0200_LatLon0.15_PT000H.grib2 2026-04-11 16:08 633K
20260411T12Z_MSC_GDPS_DewPointDepression_IsbL-0225_LatLon0.15_PT000H.grib2 2026-04-11 16:08 768K
20260411T12Z_MSC_GDPS_DewPointDepression_IsbL-0250_LatLon0.15_PT000H.grib2 2026-04-11 16:08 873K
20260411T12Z_MSC_GDPS_DewPointDepression_IsbL-0275_LatLon0.15_PT000H.grib2 2026-04-11 16:08 904K
20260411T12Z_MSC_GDPS_DewPointDepression_IsbL-0300_LatLon0.15_PT000H.grib2 2026-04-11 16:08 949K
20260411T12Z_MSC_GDPS_DewPointDepression_IsbL-0350_LatLon0.15_PT000H.grib2 2026-04-11 16:08 964K
20260411T12Z_MSC_GDPS_DewPointDepression_IsbL-0400_LatLon0.15_PT000H.grib2 2026-04-11 16:08 1.0M
20260411T12Z_MSC_GDPS_DewPointDepression_IsbL-0450_LatLon0.15_PT000H.grib2 2026-04-11 16:08 1.0M
20260411T12Z_MSC_GDPS_DewPointDepression_IsbL-0500_LatLon0.15_PT000H.grib2 2026-04-11 16:08 1.0M
20260411T12Z_MSC_GDPS_DewPointDepression_IsbL-0550_LatLon0.15_PT000H.grib2 2026-04-11 16:08 1.0M
20260411T12Z_MSC_GDPS_DewPointDepression_IsbL-0600_LatLon0.15_PT000H.grib2 2026-04-11 16:08 1.0M
20260411T12Z_MSC_GDPS_DewPointDepression_IsbL-0650_LatLon0.15_PT000H.grib2 2026-04-11 16:08 1.0M
20260411T12Z_MSC_GDPS_DewPointDepression_IsbL-0700_LatLon0.15_PT000H.grib2 2026-04-11 16:08 1.1M
20260411T12Z_MSC_GDPS_DewPointDepression_IsbL-0750_LatLon0.15_PT000H.grib2 2026-04-11 16:08 1.1M
20260411T12Z_MSC_GDPS_DewPointDepression_IsbL-0800_LatLon0.15_PT000H.grib2 2026-04-11 16:08 1.2M
20260411T12Z_MSC_GDPS_DewPointDepression_IsbL-0850_LatLon0.15_PT000H.grib2 2026-04-11 16:08 1.2M
20260411T12Z_MSC_GDPS_DewPointDepression_IsbL-0875_LatLon0.15_PT000H.grib2 2026-04-11 16:08 1.1M
20260411T12Z_MSC_GDPS_DewPointDepression_IsbL-0900_LatLon0.15_PT000H.grib2 2026-04-11 16:08 1.1M
20260411T12Z_MSC_GDPS_DewPointDepression_IsbL-0925_LatLon0.15_PT000H.grib2 2026-04-11 16:08 1.0M
20260411T12Z_MSC_GDPS_DewPointDepression_IsbL-0950_LatLon0.15_PT000H.grib2 2026-04-11 16:08 1.0M
20260411T12Z_MSC_GDPS_DewPointDepression_IsbL-0970_LatLon0.15_PT000H.grib2 2026-04-11 16:08 1.0M
20260411T12Z_MSC_GDPS_DewPointDepression_IsbL-0985_LatLon0.15_PT000H.grib2 2026-04-11 16:08 1.0M
20260411T12Z_MSC_GDPS_DewPointDepression_IsbL-1000_LatLon0.15_PT000H.grib2 2026-04-11 16:08 960K
20260411T12Z_MSC_GDPS_DewPointDepression_IsbL-1015_LatLon0.15_PT000H.grib2 2026-04-11 16:08 932K
20260411T12Z_MSC_GDPS_DewPoint_AGL-2m_LatLon0.15_PT000H.grib2 2026-04-11 16:08 635K
20260411T12Z_MSC_GDPS_DownwardLongwaveRadiationFlux-Accum_Sfc_LatLon0.15_PT000H.grib2 2026-04-11 16:08 205
20260411T12Z_MSC_GDPS_DownwardShortwaveRadiationFlux-Accum_NTAtm_LatLon0.15_PT000H.grib2 2026-04-11 16:08 205
20260411T12Z_MSC_GDPS_DownwardShortwaveRadiationFlux-Accum_Sfc_LatLon0.15_PT000H.grib2 2026-04-11 16:08 205
20260411T12Z_MSC_GDPS_GeopotentialHeight_IsbL-0001_LatLon0.15_PT000H.grib2 2026-04-11 16:08 553K
20260411T12Z_MSC_GDPS_GeopotentialHeight_IsbL-0005_LatLon0.15_PT000H.grib2 2026-04-11 16:08 460K
20260411T12Z_MSC_GDPS_GeopotentialHeight_IsbL-0010_LatLon0.15_PT000H.grib2 2026-04-11 16:08 599K
20260411T12Z_MSC_GDPS_GeopotentialHeight_IsbL-0020_LatLon0.15_PT000H.grib2 2026-04-11 16:08 603K
20260411T12Z_MSC_GDPS_GeopotentialHeight_IsbL-0030_LatLon0.15_PT000H.grib2 2026-04-11 16:08 609K
20260411T12Z_MSC_GDPS_GeopotentialHeight_IsbL-0050_LatLon0.15_PT000H.grib2 2026-04-11 16:08 539K
20260411T12Z_MSC_GDPS_GeopotentialHeight_IsbL-0100_LatLon0.15_PT000H.grib2 2026-04-11 16:08 637K
20260411T12Z_MSC_GDPS_GeopotentialHeight_IsbL-0150_LatLon0.15_PT000H.grib2 2026-04-11 16:08 652K
20260411T12Z_MSC_GDPS_GeopotentialHeight_IsbL-0175_LatLon0.15_PT000H.grib2 2026-04-11 16:08 654K
20260411T12Z_MSC_GDPS_GeopotentialHeight_IsbL-0200_LatLon0.15_PT000H.grib2 2026-04-11 16:08 659K
20260411T12Z_MSC_GDPS_GeopotentialHeight_IsbL-0225_LatLon0.15_PT000H.grib2 2026-04-11 16:08 660K
20260411T12Z_MSC_GDPS_GeopotentialHeight_IsbL-0250_LatLon0.15_PT000H.grib2 2026-04-11 16:08 658K
20260411T12Z_MSC_GDPS_GeopotentialHeight_IsbL-0275_LatLon0.15_PT000H.grib2 2026-04-11 16:08 659K
20260411T12Z_MSC_GDPS_GeopotentialHeight_IsbL-0300_LatLon0.15_PT000H.grib2 2026-04-11 16:08 657K
20260411T12Z_MSC_GDPS_GeopotentialHeight_IsbL-0350_LatLon0.15_PT000H.grib2 2026-04-11 16:08 646K
20260411T12Z_MSC_GDPS_GeopotentialHeight_IsbL-0400_LatLon0.15_PT000H.grib2 2026-04-11 16:08 639K
20260411T12Z_MSC_GDPS_GeopotentialHeight_IsbL-0450_LatLon0.15_PT000H.grib2 2026-04-11 16:08 561K
20260411T12Z_MSC_GDPS_GeopotentialHeight_IsbL-0500_LatLon0.15_PT000H.grib2 2026-04-11 16:08 553K
20260411T12Z_MSC_GDPS_GeopotentialHeight_IsbL-0550_LatLon0.15_PT000H.grib2 2026-04-11 16:08 724K
20260411T12Z_MSC_GDPS_GeopotentialHeight_IsbL-0600_LatLon0.15_PT000H.grib2 2026-04-11 16:08 720K
20260411T12Z_MSC_GDPS_GeopotentialHeight_IsbL-0650_LatLon0.15_PT000H.grib2 2026-04-11 16:08 718K
20260411T12Z_MSC_GDPS_GeopotentialHeight_IsbL-0700_LatLon0.15_PT000H.grib2 2026-04-11 16:08 721K
20260411T12Z_MSC_GDPS_GeopotentialHeight_IsbL-0750_LatLon0.15_PT000H.grib2 2026-04-11 16:08 719K
20260411T12Z_MSC_GDPS_GeopotentialHeight_IsbL-0800_LatLon0.15_PT000H.grib2 2026-04-11 16:08 731K
20260411T12Z_MSC_GDPS_GeopotentialHeight_IsbL-0850_LatLon0.15_PT000H.grib2 2026-04-11 16:08 731K
20260411T12Z_MSC_GDPS_GeopotentialHeight_IsbL-0875_LatLon0.15_PT000H.grib2 2026-04-11 16:08 731K
20260411T12Z_MSC_GDPS_GeopotentialHeight_IsbL-0900_LatLon0.15_PT000H.grib2 2026-04-11 16:08 736K
20260411T12Z_MSC_GDPS_GeopotentialHeight_IsbL-0925_LatLon0.15_PT000H.grib2 2026-04-11 16:08 743K
20260411T12Z_MSC_GDPS_GeopotentialHeight_IsbL-0950_LatLon0.15_PT000H.grib2 2026-04-11 16:08 749K
20260411T12Z_MSC_GDPS_GeopotentialHeight_IsbL-0970_LatLon0.15_PT000H.grib2 2026-04-11 16:08 758K
20260411T12Z_MSC_GDPS_GeopotentialHeight_IsbL-0985_LatLon0.15_PT000H.grib2 2026-04-11 16:08 773K
20260411T12Z_MSC_GDPS_GeopotentialHeight_IsbL-1000_LatLon0.15_PT000H.grib2 2026-04-11 16:08 793K
20260411T12Z_MSC_GDPS_GeopotentialHeight_IsbL-1015_LatLon0.15_PT000H.grib2 2026-04-11 16:08 815K
20260411T12Z_MSC_GDPS_GeopotentialHeight_Sfc_LatLon0.15_PT000H.grib2 2026-04-11 16:08 707K
20260411T12Z_MSC_GDPS_Humidex_Sfc_LatLon0.15_PT000H.grib2 2026-04-11 16:08 5.4M
20260411T12Z_MSC_GDPS_KIndex_Sfc_LatLon0.15_PT000H.grib2 2026-04-11 16:08 6.5M
20260411T12Z_MSC_GDPS_LandWaterProportion_Sfc_LatLon0.15_PT000H.grib2 2026-04-11 16:08 239K
20260411T12Z_MSC_GDPS_LatentHeatNetFlux_Sfc_LatLon0.15_PT000H.grib2 2026-04-11 16:08 575K
20260411T12Z_MSC_GDPS_LiftedIndex-MU-VT_IsbL-0500_LatLon0.15_PT000H.grib2 2026-04-11 16:08 5.4M
20260411T12Z_MSC_GDPS_NetLongwaveRadiationFlux-Accum_Sfc_LatLon0.15_PT000H.grib2 2026-04-11 16:08 205
20260411T12Z_MSC_GDPS_NetShortwaveRadiationFlux-Accum_Sfc_LatLon0.15_PT000H.grib2 2026-04-11 16:08 205
20260411T12Z_MSC_GDPS_O3MixingRatio_LatLon0.15_PT000H.grib2 2026-04-11 17:04 2.1M
20260411T12Z_MSC_GDPS_O3_EAtm_LatLon0.15_PT000H.grib2 2026-04-11 17:04 2.1M
20260411T12Z_MSC_GDPS_PlanetaryBoundaryLayerHeight_Sfc_LatLon0.15_PT000H.grib2 2026-04-11 16:08 2.4M
20260411T12Z_MSC_GDPS_PrecipType-Instant_Sfc_LatLon0.15_PT000H.grib2 2026-04-11 16:08 181
20260411T12Z_MSC_GDPS_Pressure_MSL_LatLon0.15_PT000H.grib2 2026-04-11 16:08 726K
20260411T12Z_MSC_GDPS_Pressure_PVU-1.5_LatLon0.15_PT000H.grib2 2026-04-11 16:08 5.8M
20260411T12Z_MSC_GDPS_Pressure_PVU-1_LatLon0.15_PT000H.grib2 2026-04-11 16:08 6.0M
20260411T12Z_MSC_GDPS_Pressure_PVU-2_LatLon0.15_PT000H.grib2 2026-04-11 16:08 5.6M
20260411T12Z_MSC_GDPS_Pressure_Sfc_LatLon0.15_PT000H.grib2 2026-04-11 16:08 1.1M
20260411T12Z_MSC_GDPS_RadiativeTemp_Sfc_LatLon0.15_PT000H.grib2 2026-04-11 16:08 642K
20260411T12Z_MSC_GDPS_RelativeHumidity_AGL-2m_LatLon0.15_PT000H.grib2 2026-04-11 16:08 1.1M
20260411T12Z_MSC_GDPS_RelativeHumidity_IsbL-0010_LatLon0.15_PT000H.grib2 2026-04-11 16:08 379K
20260411T12Z_MSC_GDPS_RelativeHumidity_IsbL-0020_LatLon0.15_PT000H.grib2 2026-04-11 16:08 410K
20260411T12Z_MSC_GDPS_RelativeHumidity_IsbL-0030_LatLon0.15_PT000H.grib2 2026-04-11 16:08 534K
20260411T12Z_MSC_GDPS_RelativeHumidity_IsbL-0050_LatLon0.15_PT000H.grib2 2026-04-11 16:08 327K
20260411T12Z_MSC_GDPS_RelativeHumidity_IsbL-0100_LatLon0.15_PT000H.grib2 2026-04-11 16:08 496K
20260411T12Z_MSC_GDPS_RelativeHumidity_IsbL-0150_LatLon0.15_PT000H.grib2 2026-04-11 16:08 643K
20260411T12Z_MSC_GDPS_RelativeHumidity_IsbL-0175_LatLon0.15_PT000H.grib2 2026-04-11 16:08 748K
20260411T12Z_MSC_GDPS_RelativeHumidity_IsbL-0200_LatLon0.15_PT000H.grib2 2026-04-11 16:08 665K
20260411T12Z_MSC_GDPS_RelativeHumidity_IsbL-0225_LatLon0.15_PT000H.grib2 2026-04-11 16:08 756K
20260411T12Z_MSC_GDPS_RelativeHumidity_IsbL-0250_LatLon0.15_PT000H.grib2 2026-04-11 16:08 843K
20260411T12Z_MSC_GDPS_RelativeHumidity_IsbL-0275_LatLon0.15_PT000H.grib2 2026-04-11 16:08 875K
20260411T12Z_MSC_GDPS_RelativeHumidity_IsbL-0300_LatLon0.15_PT000H.grib2 2026-04-11 16:08 925K
20260411T12Z_MSC_GDPS_RelativeHumidity_IsbL-0350_LatLon0.15_PT000H.grib2 2026-04-11 16:08 944K
20260411T12Z_MSC_GDPS_RelativeHumidity_IsbL-0400_LatLon0.15_PT000H.grib2 2026-04-11 16:08 968K
20260411T12Z_MSC_GDPS_RelativeHumidity_IsbL-0450_LatLon0.15_PT000H.grib2 2026-04-11 16:08 1.0M
20260411T12Z_MSC_GDPS_RelativeHumidity_IsbL-0500_LatLon0.15_PT000H.grib2 2026-04-11 16:08 1.0M
20260411T12Z_MSC_GDPS_RelativeHumidity_IsbL-0550_LatLon0.15_PT000H.grib2 2026-04-11 16:08 1.1M
20260411T12Z_MSC_GDPS_RelativeHumidity_IsbL-0600_LatLon0.15_PT000H.grib2 2026-04-11 16:08 1.1M
20260411T12Z_MSC_GDPS_RelativeHumidity_IsbL-0650_LatLon0.15_PT000H.grib2 2026-04-11 16:08 1.1M
20260411T12Z_MSC_GDPS_RelativeHumidity_IsbL-0700_LatLon0.15_PT000H.grib2 2026-04-11 16:08 1.1M
20260411T12Z_MSC_GDPS_RelativeHumidity_IsbL-0750_LatLon0.15_PT000H.grib2 2026-04-11 16:08 1.2M
20260411T12Z_MSC_GDPS_RelativeHumidity_IsbL-0800_LatLon0.15_PT000H.grib2 2026-04-11 16:08 1.3M
20260411T12Z_MSC_GDPS_RelativeHumidity_IsbL-0850_LatLon0.15_PT000H.grib2 2026-04-11 16:08 1.3M
20260411T12Z_MSC_GDPS_RelativeHumidity_IsbL-0875_LatLon0.15_PT000H.grib2 2026-04-11 16:08 1.3M
20260411T12Z_MSC_GDPS_RelativeHumidity_IsbL-0900_LatLon0.15_PT000H.grib2 2026-04-11 16:08 1.3M
20260411T12Z_MSC_GDPS_RelativeHumidity_IsbL-0925_LatLon0.15_PT000H.grib2 2026-04-11 16:08 1.2M
20260411T12Z_MSC_GDPS_RelativeHumidity_IsbL-0950_LatLon0.15_PT000H.grib2 2026-04-11 16:08 1.2M
20260411T12Z_MSC_GDPS_RelativeHumidity_IsbL-0970_LatLon0.15_PT000H.grib2 2026-04-11 16:08 1.2M
20260411T12Z_MSC_GDPS_RelativeHumidity_IsbL-0985_LatLon0.15_PT000H.grib2 2026-04-11 16:08 1.1M
20260411T12Z_MSC_GDPS_RelativeHumidity_IsbL-1000_LatLon0.15_PT000H.grib2 2026-04-11 16:08 1.1M
20260411T12Z_MSC_GDPS_RelativeHumidity_IsbL-1015_LatLon0.15_PT000H.grib2 2026-04-11 16:08 1.1M
20260411T12Z_MSC_GDPS_RelativeVorticity_IsbL-0200_LatLon0.15_PT000H.grib2 2026-04-11 16:08 1.2M
20260411T12Z_MSC_GDPS_RelativeVorticity_IsbL-0250_LatLon0.15_PT000H.grib2 2026-04-11 16:08 1.3M
20260411T12Z_MSC_GDPS_RelativeVorticity_IsbL-0500_LatLon0.15_PT000H.grib2 2026-04-11 16:08 1.5M
20260411T12Z_MSC_GDPS_RelativeVorticity_IsbL-0700_LatLon0.15_PT000H.grib2 2026-04-11 16:08 1.3M
20260411T12Z_MSC_GDPS_RelativeVorticity_IsbL-0850_LatLon0.15_PT000H.grib2 2026-04-11 16:08 1.6M
20260411T12Z_MSC_GDPS_Runoff-Accum_Sfc_LatLon0.15_PT000H.grib2 2026-04-11 16:08 181
20260411T12Z_MSC_GDPS_SeaIceFraction_Sfc_LatLon0.15_PT000H.grib2 2026-04-11 16:08 280K
20260411T12Z_MSC_GDPS_SeaWaterTemp_Sfc_LatLon0.15_PT000H.grib2 2026-04-11 16:08 901K
20260411T12Z_MSC_GDPS_SensibleHeatNetFlux_Sfc_LatLon0.15_PT000H.grib2 2026-04-11 16:08 661K
20260411T12Z_MSC_GDPS_ShowalterIndex_IsbL-0500_LatLon0.15_PT000H.grib2 2026-04-11 16:08 6.2M
20260411T12Z_MSC_GDPS_SnowDensity_Sfc_LatLon0.15_PT000H.grib2 2026-04-11 16:08 253K
20260411T12Z_MSC_GDPS_SnowDepth_Sfc_LatLon0.15_PT000H.grib2 2026-04-11 16:08 1.8M
20260411T12Z_MSC_GDPS_SoilTemp_DBS-0to10cm_LatLon0.15_PT000H.grib2 2026-04-11 16:08 487K
20260411T12Z_MSC_GDPS_SoilTemp_Sfc_LatLon0.15_PT000H.grib2 2026-04-11 16:08 547K
20260411T12Z_MSC_GDPS_SoilVolumetricIceContent_Sfc_LatLon0.15_PT000H.grib2 2026-04-11 16:08 232K
20260411T12Z_MSC_GDPS_SoilVolumetricWaterContent_DBS-0to10cm_LatLon0.15_PT000H.grib2 2026-04-11 16:08 491K
20260411T12Z_MSC_GDPS_SoilVolumetricWaterContent_DBS-0to1cm_LatLon0.15_PT000H.grib2 2026-04-11 16:08 549K
20260411T12Z_MSC_GDPS_SpecificHumidity_AGL-120m_LatLon0.15_PT000H.grib2 2026-04-11 16:08 1.1M
20260411T12Z_MSC_GDPS_SpecificHumidity_AGL-2m_LatLon0.15_PT000H.grib2 2026-04-11 16:08 1.3M
20260411T12Z_MSC_GDPS_SpecificHumidity_AGL-40m_LatLon0.15_PT000H.grib2 2026-04-11 16:08 1.1M
20260411T12Z_MSC_GDPS_SpecificHumidity_AGL-80m_LatLon0.15_PT000H.grib2 2026-04-11 16:08 1.1M
20260411T12Z_MSC_GDPS_SpecificHumidity_IsbL-0001_LatLon0.15_PT000H.grib2 2026-04-11 16:08 1.3M
20260411T12Z_MSC_GDPS_SpecificHumidity_IsbL-0005_LatLon0.15_PT000H.grib2 2026-04-11 16:08 1.2M
20260411T12Z_MSC_GDPS_SpecificHumidity_IsbL-0010_LatLon0.15_PT000H.grib2 2026-04-11 16:08 1.4M
20260411T12Z_MSC_GDPS_SpecificHumidity_IsbL-0020_LatLon0.15_PT000H.grib2 2026-04-11 16:08 1.4M
20260411T12Z_MSC_GDPS_SpecificHumidity_IsbL-0030_LatLon0.15_PT000H.grib2 2026-04-11 16:08 1.4M
20260411T12Z_MSC_GDPS_SpecificHumidity_IsbL-0050_LatLon0.15_PT000H.grib2 2026-04-11 16:08 1.4M
20260411T12Z_MSC_GDPS_SpecificHumidity_IsbL-0100_LatLon0.15_PT000H.grib2 2026-04-11 16:08 1.3M
20260411T12Z_MSC_GDPS_SpecificHumidity_IsbL-0150_LatLon0.15_PT000H.grib2 2026-04-11 16:08 1.3M
20260411T12Z_MSC_GDPS_SpecificHumidity_IsbL-0175_LatLon0.15_PT000H.grib2 2026-04-11 16:08 1.3M
20260411T12Z_MSC_GDPS_SpecificHumidity_IsbL-0200_LatLon0.15_PT000H.grib2 2026-04-11 16:08 1.3M
20260411T12Z_MSC_GDPS_SpecificHumidity_IsbL-0225_LatLon0.15_PT000H.grib2 2026-04-11 16:08 1.3M
20260411T12Z_MSC_GDPS_SpecificHumidity_IsbL-0250_LatLon0.15_PT000H.grib2 2026-04-11 16:08 1.2M
20260411T12Z_MSC_GDPS_SpecificHumidity_IsbL-0275_LatLon0.15_PT000H.grib2 2026-04-11 16:08 1.4M
20260411T12Z_MSC_GDPS_SpecificHumidity_IsbL-0300_LatLon0.15_PT000H.grib2 2026-04-11 16:08 1.2M
20260411T12Z_MSC_GDPS_SpecificHumidity_IsbL-0350_LatLon0.15_PT000H.grib2 2026-04-11 16:08 1.2M
20260411T12Z_MSC_GDPS_SpecificHumidity_IsbL-0400_LatLon0.15_PT000H.grib2 2026-04-11 16:08 1.5M
20260411T12Z_MSC_GDPS_SpecificHumidity_IsbL-0450_LatLon0.15_PT000H.grib2 2026-04-11 16:08 1.3M
20260411T12Z_MSC_GDPS_SpecificHumidity_IsbL-0500_LatLon0.15_PT000H.grib2 2026-04-11 16:08 1.4M
20260411T12Z_MSC_GDPS_SpecificHumidity_IsbL-0550_LatLon0.15_PT000H.grib2 2026-04-11 16:08 1.6M
20260411T12Z_MSC_GDPS_SpecificHumidity_IsbL-0600_LatLon0.15_PT000H.grib2 2026-04-11 16:08 1.4M
20260411T12Z_MSC_GDPS_SpecificHumidity_IsbL-0650_LatLon0.15_PT000H.grib2 2026-04-11 16:08 1.5M
20260411T12Z_MSC_GDPS_SpecificHumidity_IsbL-0700_LatLon0.15_PT000H.grib2 2026-04-11 16:08 1.6M
20260411T12Z_MSC_GDPS_SpecificHumidity_IsbL-0750_LatLon0.15_PT000H.grib2 2026-04-11 16:08 1.7M
20260411T12Z_MSC_GDPS_SpecificHumidity_IsbL-0800_LatLon0.15_PT000H.grib2 2026-04-11 16:08 1.8M
20260411T12Z_MSC_GDPS_SpecificHumidity_IsbL-0850_LatLon0.15_PT000H.grib2 2026-04-11 16:08 1.9M
20260411T12Z_MSC_GDPS_SpecificHumidity_IsbL-0875_LatLon0.15_PT000H.grib2 2026-04-11 16:08 1.9M
20260411T12Z_MSC_GDPS_SpecificHumidity_IsbL-0900_LatLon0.15_PT000H.grib2 2026-04-11 16:08 1.6M
20260411T12Z_MSC_GDPS_SpecificHumidity_IsbL-0925_LatLon0.15_PT000H.grib2 2026-04-11 16:08 1.6M
20260411T12Z_MSC_GDPS_SpecificHumidity_IsbL-0950_LatLon0.15_PT000H.grib2 2026-04-11 16:08 1.5M
20260411T12Z_MSC_GDPS_SpecificHumidity_IsbL-0970_LatLon0.15_PT000H.grib2 2026-04-11 16:08 1.5M
20260411T12Z_MSC_GDPS_SpecificHumidity_IsbL-0985_LatLon0.15_PT000H.grib2 2026-04-11 16:08 1.5M
20260411T12Z_MSC_GDPS_SpecificHumidity_IsbL-1000_LatLon0.15_PT000H.grib2 2026-04-11 16:08 1.5M
20260411T12Z_MSC_GDPS_SpecificHumidity_IsbL-1015_LatLon0.15_PT000H.grib2 2026-04-11 16:08 1.5M
20260411T12Z_MSC_GDPS_SpecificHumidity_Sfc_LatLon0.15_PT000H.grib2 2026-04-11 16:08 649K
20260411T12Z_MSC_GDPS_Thickness_IsbL-0850to0700_LatLon0.15_PT000H.grib2 2026-04-11 16:08 478K
20260411T12Z_MSC_GDPS_Thickness_IsbL-1000to0500_LatLon0.15_PT000H.grib2 2026-04-11 16:08 337K
20260411T12Z_MSC_GDPS_Thickness_IsbL-1000to0850_LatLon0.15_PT000H.grib2 2026-04-11 16:08 490K
20260411T12Z_MSC_GDPS_TotalCloudCover_Sfc_LatLon0.15_PT000H.grib2 2026-04-11 16:08 780K
20260411T12Z_MSC_GDPS_TotalTotalsIndex_Sfc_LatLon0.15_PT000H.grib2 2026-04-11 16:08 6.2M
20260411T12Z_MSC_GDPS_UVIndex-ClearSky_Sfc_LatLon0.15_PT000H.grib2 2026-04-11 17:04 1.0M
20260411T12Z_MSC_GDPS_UVIndex_Sfc_LatLon0.15_PT000H.grib2 2026-04-11 17:04 1.4M
20260411T12Z_MSC_GDPS_UpwardLongwaveRadiationFlux_NTAtm_LatLon0.15_PT000H.grib2 2026-04-11 16:08 877K
20260411T12Z_MSC_GDPS_VerticalVelocity_IsbL-0200_LatLon0.15_PT000H.grib2 2026-04-11 16:08 1.1M
20260411T12Z_MSC_GDPS_VerticalVelocity_IsbL-0250_LatLon0.15_PT000H.grib2 2026-04-11 16:08 1.0M
20260411T12Z_MSC_GDPS_VerticalVelocity_IsbL-0500_LatLon0.15_PT000H.grib2 2026-04-11 16:08 1.0M
20260411T12Z_MSC_GDPS_VerticalVelocity_IsbL-0600_LatLon0.15_PT000H.grib2 2026-04-11 16:08 1.1M
20260411T12Z_MSC_GDPS_VerticalVelocity_IsbL-0700_LatLon0.15_PT000H.grib2 2026-04-11 16:08 1.1M
20260411T12Z_MSC_GDPS_VerticalVelocity_IsbL-0850_LatLon0.15_PT000H.grib2 2026-04-11 16:08 1.0M
20260411T12Z_MSC_GDPS_WindChill_Sfc_LatLon0.15_PT000H.grib2 2026-04-11 16:08 5.5M
20260411T12Z_MSC_GDPS_WindDir_AGL-10m_LatLon0.15_PT000H.grib2 2026-04-11 16:08 1.4M
20260411T12Z_MSC_GDPS_WindDir_AGL-120m_LatLon0.15_PT000H.grib2 2026-04-11 16:08 1.3M
20260411T12Z_MSC_GDPS_WindDir_AGL-40m_LatLon0.15_PT000H.grib2 2026-04-11 16:08 1.4M
20260411T12Z_MSC_GDPS_WindDir_AGL-80m_LatLon0.15_PT000H.grib2 2026-04-11 16:08 1.3M
20260411T12Z_MSC_GDPS_WindDir_IsbL-0001_LatLon0.15_PT000H.grib2 2026-04-11 16:08 631K
20260411T12Z_MSC_GDPS_WindDir_IsbL-0005_LatLon0.15_PT000H.grib2 2026-04-11 16:08 780K
20260411T12Z_MSC_GDPS_WindDir_IsbL-0010_LatLon0.15_PT000H.grib2 2026-04-11 16:08 883K
20260411T12Z_MSC_GDPS_WindDir_IsbL-0020_LatLon0.15_PT000H.grib2 2026-04-11 16:08 936K
20260411T12Z_MSC_GDPS_WindDir_IsbL-0030_LatLon0.15_PT000H.grib2 2026-04-11 16:08 884K
20260411T12Z_MSC_GDPS_WindDir_IsbL-0050_LatLon0.15_PT000H.grib2 2026-04-11 16:08 954K
20260411T12Z_MSC_GDPS_WindDir_IsbL-0100_LatLon0.15_PT000H.grib2 2026-04-11 16:08 1.0M
20260411T12Z_MSC_GDPS_WindDir_IsbL-0150_LatLon0.15_PT000H.grib2 2026-04-11 16:08 1.0M
20260411T12Z_MSC_GDPS_WindDir_IsbL-0175_LatLon0.15_PT000H.grib2 2026-04-11 16:08 1.0M
20260411T12Z_MSC_GDPS_WindDir_IsbL-0200_LatLon0.15_PT000H.grib2 2026-04-11 16:08 1.1M
20260411T12Z_MSC_GDPS_WindDir_IsbL-0225_LatLon0.15_PT000H.grib2 2026-04-11 16:08 1.1M
20260411T12Z_MSC_GDPS_WindDir_IsbL-0250_LatLon0.15_PT000H.grib2 2026-04-11 16:08 1.1M
20260411T12Z_MSC_GDPS_WindDir_IsbL-0275_LatLon0.15_PT000H.grib2 2026-04-11 16:08 1.2M
20260411T12Z_MSC_GDPS_WindDir_IsbL-0300_LatLon0.15_PT000H.grib2 2026-04-11 16:08 1.2M
20260411T12Z_MSC_GDPS_WindDir_IsbL-0350_LatLon0.15_PT000H.grib2 2026-04-11 16:08 1.2M
20260411T12Z_MSC_GDPS_WindDir_IsbL-0400_LatLon0.15_PT000H.grib2 2026-04-11 16:08 1.3M
20260411T12Z_MSC_GDPS_WindDir_IsbL-0450_LatLon0.15_PT000H.grib2 2026-04-11 16:08 1.3M
20260411T12Z_MSC_GDPS_WindDir_IsbL-0500_LatLon0.15_PT000H.grib2 2026-04-11 16:08 1.4M
20260411T12Z_MSC_GDPS_WindDir_IsbL-0550_LatLon0.15_PT000H.grib2 2026-04-11 16:08 1.4M
20260411T12Z_MSC_GDPS_WindDir_IsbL-0600_LatLon0.15_PT000H.grib2 2026-04-11 16:08 1.4M
20260411T12Z_MSC_GDPS_WindDir_IsbL-0650_LatLon0.15_PT000H.grib2 2026-04-11 16:08 1.5M
20260411T12Z_MSC_GDPS_WindDir_IsbL-0700_LatLon0.15_PT000H.grib2 2026-04-11 16:08 1.6M
20260411T12Z_MSC_GDPS_WindDir_IsbL-0750_LatLon0.15_PT000H.grib2 2026-04-11 16:08 1.7M
20260411T12Z_MSC_GDPS_WindDir_IsbL-0800_LatLon0.15_PT000H.grib2 2026-04-11 16:08 1.8M
20260411T12Z_MSC_GDPS_WindDir_IsbL-0850_LatLon0.15_PT000H.grib2 2026-04-11 16:08 1.9M
20260411T12Z_MSC_GDPS_WindDir_IsbL-0875_LatLon0.15_PT000H.grib2 2026-04-11 16:08 1.9M
20260411T12Z_MSC_GDPS_WindDir_IsbL-0900_LatLon0.15_PT000H.grib2 2026-04-11 16:08 1.9M
20260411T12Z_MSC_GDPS_WindDir_IsbL-0925_LatLon0.15_PT000H.grib2 2026-04-11 16:08 1.9M
20260411T12Z_MSC_GDPS_WindDir_IsbL-0950_LatLon0.15_PT000H.grib2 2026-04-11 16:08 1.9M
20260411T12Z_MSC_GDPS_WindDir_IsbL-0970_LatLon0.15_PT000H.grib2 2026-04-11 16:08 2.0M
20260411T12Z_MSC_GDPS_WindDir_IsbL-0985_LatLon0.15_PT000H.grib2 2026-04-11 16:08 2.0M
20260411T12Z_MSC_GDPS_WindDir_IsbL-1000_LatLon0.15_PT000H.grib2 2026-04-11 16:08 2.0M
20260411T12Z_MSC_GDPS_WindDir_IsbL-1015_LatLon0.15_PT000H.grib2 2026-04-11 16:08 2.1M
20260411T12Z_MSC_GDPS_WindGust-Max_AGL-10m_LatLon0.15_PT000H.grib2 2026-04-11 16:08 2.1M
20260411T12Z_MSC_GDPS_WindGust-Min_AGL-10m_LatLon0.15_PT000H.grib2 2026-04-11 16:08 2.2M
20260411T12Z_MSC_GDPS_WindGust_AGL-10m_LatLon0.15_PT000H.grib2 2026-04-11 16:08 2.2M
20260411T12Z_MSC_GDPS_WindSpeed_AGL-10m_LatLon0.15_PT000H.grib2 2026-04-11 16:08 1.1M
20260411T12Z_MSC_GDPS_WindSpeed_AGL-120m_LatLon0.15_PT000H.grib2 2026-04-11 16:08 1.2M
20260411T12Z_MSC_GDPS_WindSpeed_AGL-40m_LatLon0.15_PT000H.grib2 2026-04-11 16:08 1.2M
20260411T12Z_MSC_GDPS_WindSpeed_AGL-80m_LatLon0.15_PT000H.grib2 2026-04-11 16:08 1.2M
20260411T12Z_MSC_GDPS_WindSpeed_IsbL-0001_LatLon0.15_PT000H.grib2 2026-04-11 16:08 640K
20260411T12Z_MSC_GDPS_WindSpeed_IsbL-0005_LatLon0.15_PT000H.grib2 2026-04-11 16:08 615K
20260411T12Z_MSC_GDPS_WindSpeed_IsbL-0010_LatLon0.15_PT000H.grib2 2026-04-11 16:08 642K
20260411T12Z_MSC_GDPS_WindSpeed_IsbL-0020_LatLon0.15_PT000H.grib2 2026-04-11 16:08 884K
20260411T12Z_MSC_GDPS_WindSpeed_IsbL-0030_LatLon0.15_PT000H.grib2 2026-04-11 16:08 869K
20260411T12Z_MSC_GDPS_WindSpeed_IsbL-0050_LatLon0.15_PT000H.grib2 2026-04-11 16:08 1.0M
20260411T12Z_MSC_GDPS_WindSpeed_IsbL-0100_LatLon0.15_PT000H.grib2 2026-04-11 16:08 1.1M
20260411T12Z_MSC_GDPS_WindSpeed_IsbL-0150_LatLon0.15_PT000H.grib2 2026-04-11 16:08 1.0M
20260411T12Z_MSC_GDPS_WindSpeed_IsbL-0175_LatLon0.15_PT000H.grib2 2026-04-11 16:08 1.0M
20260411T12Z_MSC_GDPS_WindSpeed_IsbL-0200_LatLon0.15_PT000H.grib2 2026-04-11 16:08 1.1M
20260411T12Z_MSC_GDPS_WindSpeed_IsbL-0225_LatLon0.15_PT000H.grib2 2026-04-11 16:08 1.1M
20260411T12Z_MSC_GDPS_WindSpeed_IsbL-0250_LatLon0.15_PT000H.grib2 2026-04-11 16:08 1.1M
20260411T12Z_MSC_GDPS_WindSpeed_IsbL-0275_LatLon0.15_PT000H.grib2 2026-04-11 16:08 1.1M
20260411T12Z_MSC_GDPS_WindSpeed_IsbL-0300_LatLon0.15_PT000H.grib2 2026-04-11 16:08 1.1M
20260411T12Z_MSC_GDPS_WindSpeed_IsbL-0350_LatLon0.15_PT000H.grib2 2026-04-11 16:08 1.1M
20260411T12Z_MSC_GDPS_WindSpeed_IsbL-0400_LatLon0.15_PT000H.grib2 2026-04-11 16:08 1.1M
20260411T12Z_MSC_GDPS_WindSpeed_IsbL-0450_LatLon0.15_PT000H.grib2 2026-04-11 16:08 1.1M
20260411T12Z_MSC_GDPS_WindSpeed_IsbL-0500_LatLon0.15_PT000H.grib2 2026-04-11 16:08 1.1M
20260411T12Z_MSC_GDPS_WindSpeed_IsbL-0550_LatLon0.15_PT000H.grib2 2026-04-11 16:08 1.1M
20260411T12Z_MSC_GDPS_WindSpeed_IsbL-0600_LatLon0.15_PT000H.grib2 2026-04-11 16:08 1.4M
20260411T12Z_MSC_GDPS_WindSpeed_IsbL-0650_LatLon0.15_PT000H.grib2 2026-04-11 16:08 1.5M
20260411T12Z_MSC_GDPS_WindSpeed_IsbL-0700_LatLon0.15_PT000H.grib2 2026-04-11 16:08 1.5M
20260411T12Z_MSC_GDPS_WindSpeed_IsbL-0750_LatLon0.15_PT000H.grib2 2026-04-11 16:08 1.6M
20260411T12Z_MSC_GDPS_WindSpeed_IsbL-0800_LatLon0.15_PT000H.grib2 2026-04-11 16:08 1.7M
20260411T12Z_MSC_GDPS_WindSpeed_IsbL-0850_LatLon0.15_PT000H.grib2 2026-04-11 16:08 1.9M
20260411T12Z_MSC_GDPS_WindSpeed_IsbL-0875_LatLon0.15_PT000H.grib2 2026-04-11 16:08 1.8M
20260411T12Z_MSC_GDPS_WindSpeed_IsbL-0900_LatLon0.15_PT000H.grib2 2026-04-11 16:08 1.8M
20260411T12Z_MSC_GDPS_WindSpeed_IsbL-0925_LatLon0.15_PT000H.grib2 2026-04-11 16:08 1.8M
20260411T12Z_MSC_GDPS_WindSpeed_IsbL-0950_LatLon0.15_PT000H.grib2 2026-04-11 16:08 1.9M
20260411T12Z_MSC_GDPS_WindSpeed_IsbL-0970_LatLon0.15_PT000H.grib2 2026-04-11 16:08 1.9M
20260411T12Z_MSC_GDPS_WindSpeed_IsbL-0985_LatLon0.15_PT000H.grib2 2026-04-11 16:08 1.8M
20260411T12Z_MSC_GDPS_WindSpeed_IsbL-1000_LatLon0.15_PT000H.grib2 2026-04-11 16:08 1.8M
20260411T12Z_MSC_GDPS_WindSpeed_IsbL-1015_LatLon0.15_PT000H.grib2 2026-04-11 16:08 1.8M
20260411T12Z_MSC_GDPS_WindU_AGL-10m_LatLon0.15_PT000H.grib2 2026-04-11 16:08 1.6M
20260411T12Z_MSC_GDPS_WindU_AGL-120m_LatLon0.15_PT000H.grib2 2026-04-11 16:08 954K
20260411T12Z_MSC_GDPS_WindU_AGL-40m_LatLon0.15_PT000H.grib2 2026-04-11 16:08 1.2M
20260411T12Z_MSC_GDPS_WindU_AGL-80m_LatLon0.15_PT000H.grib2 2026-04-11 16:08 951K
20260411T12Z_MSC_GDPS_WindU_IsbL-0001_LatLon0.15_PT000H.grib2 2026-04-11 16:08 500K
20260411T12Z_MSC_GDPS_WindU_IsbL-0005_LatLon0.15_PT000H.grib2 2026-04-11 16:08 696K
20260411T12Z_MSC_GDPS_WindU_IsbL-0010_LatLon0.15_PT000H.grib2 2026-04-11 16:08 714K
20260411T12Z_MSC_GDPS_WindU_IsbL-0020_LatLon0.15_PT000H.grib2 2026-04-11 16:08 753K
20260411T12Z_MSC_GDPS_WindU_IsbL-0030_LatLon0.15_PT000H.grib2 2026-04-11 16:08 747K
20260411T12Z_MSC_GDPS_WindU_IsbL-0050_LatLon0.15_PT000H.grib2 2026-04-11 16:08 716K
20260411T12Z_MSC_GDPS_WindU_IsbL-0100_LatLon0.15_PT000H.grib2 2026-04-11 16:08 935K
20260411T12Z_MSC_GDPS_WindU_IsbL-0150_LatLon0.15_PT000H.grib2 2026-04-11 16:08 1.0M
20260411T12Z_MSC_GDPS_WindU_IsbL-0175_LatLon0.15_PT000H.grib2 2026-04-11 16:08 815K
20260411T12Z_MSC_GDPS_WindU_IsbL-0200_LatLon0.15_PT000H.grib2 2026-04-11 16:08 846K
20260411T12Z_MSC_GDPS_WindU_IsbL-0225_LatLon0.15_PT000H.grib2 2026-04-11 16:08 858K
20260411T12Z_MSC_GDPS_WindU_IsbL-0250_LatLon0.15_PT000H.grib2 2026-04-11 16:08 863K
20260411T12Z_MSC_GDPS_WindU_IsbL-0275_LatLon0.15_PT000H.grib2 2026-04-11 16:08 892K
20260411T12Z_MSC_GDPS_WindU_IsbL-0300_LatLon0.15_PT000H.grib2 2026-04-11 16:08 884K
20260411T12Z_MSC_GDPS_WindU_IsbL-0350_LatLon0.15_PT000H.grib2 2026-04-11 16:08 903K
20260411T12Z_MSC_GDPS_WindU_IsbL-0400_LatLon0.15_PT000H.grib2 2026-04-11 16:08 908K
20260411T12Z_MSC_GDPS_WindU_IsbL-0450_LatLon0.15_PT000H.grib2 2026-04-11 16:08 1.1M
20260411T12Z_MSC_GDPS_WindU_IsbL-0500_LatLon0.15_PT000H.grib2 2026-04-11 16:08 1.1M
20260411T12Z_MSC_GDPS_WindU_IsbL-0550_LatLon0.15_PT000H.grib2 2026-04-11 16:08 1.1M
20260411T12Z_MSC_GDPS_WindU_IsbL-0600_LatLon0.15_PT000H.grib2 2026-04-11 16:08 1.2M
20260411T12Z_MSC_GDPS_WindU_IsbL-0650_LatLon0.15_PT000H.grib2 2026-04-11 16:08 1.2M
20260411T12Z_MSC_GDPS_WindU_IsbL-0700_LatLon0.15_PT000H.grib2 2026-04-11 16:08 1.2M
20260411T12Z_MSC_GDPS_WindU_IsbL-0750_LatLon0.15_PT000H.grib2 2026-04-11 16:08 1.3M
20260411T12Z_MSC_GDPS_WindU_IsbL-0800_LatLon0.15_PT000H.grib2 2026-04-11 16:08 1.4M
20260411T12Z_MSC_GDPS_WindU_IsbL-0850_LatLon0.15_PT000H.grib2 2026-04-11 16:08 1.4M
20260411T12Z_MSC_GDPS_WindU_IsbL-0875_LatLon0.15_PT000H.grib2 2026-04-11 16:08 1.4M
20260411T12Z_MSC_GDPS_WindU_IsbL-0900_LatLon0.15_PT000H.grib2 2026-04-11 16:08 1.5M
20260411T12Z_MSC_GDPS_WindU_IsbL-0925_LatLon0.15_PT000H.grib2 2026-04-11 16:08 1.4M
20260411T12Z_MSC_GDPS_WindU_IsbL-0950_LatLon0.15_PT000H.grib2 2026-04-11 16:08 1.4M
20260411T12Z_MSC_GDPS_WindU_IsbL-0970_LatLon0.15_PT000H.grib2 2026-04-11 16:08 1.4M
20260411T12Z_MSC_GDPS_WindU_IsbL-0985_LatLon0.15_PT000H.grib2 2026-04-11 16:08 1.4M
20260411T12Z_MSC_GDPS_WindU_IsbL-1000_LatLon0.15_PT000H.grib2 2026-04-11 16:08 1.7M
20260411T12Z_MSC_GDPS_WindU_IsbL-1015_LatLon0.15_PT000H.grib2 2026-04-11 16:08 1.7M
20260411T12Z_MSC_GDPS_WindV_AGL-10m_LatLon0.15_PT000H.grib2 2026-04-11 16:08 1.3M
20260411T12Z_MSC_GDPS_WindV_AGL-120m_LatLon0.15_PT000H.grib2 2026-04-11 16:08 954K
20260411T12Z_MSC_GDPS_WindV_AGL-40m_LatLon0.15_PT000H.grib2 2026-04-11 16:08 944K
20260411T12Z_MSC_GDPS_WindV_AGL-80m_LatLon0.15_PT000H.grib2 2026-04-11 16:08 952K
20260411T12Z_MSC_GDPS_WindV_IsbL-0001_LatLon0.15_PT000H.grib2 2026-04-11 16:08 549K
20260411T12Z_MSC_GDPS_WindV_IsbL-0005_LatLon0.15_PT000H.grib2 2026-04-11 16:08 780K
20260411T12Z_MSC_GDPS_WindV_IsbL-0010_LatLon0.15_PT000H.grib2 2026-04-11 16:08 888K
20260411T12Z_MSC_GDPS_WindV_IsbL-0020_LatLon0.15_PT000H.grib2 2026-04-11 16:08 950K
20260411T12Z_MSC_GDPS_WindV_IsbL-0030_LatLon0.15_PT000H.grib2 2026-04-11 16:08 943K
20260411T12Z_MSC_GDPS_WindV_IsbL-0050_LatLon0.15_PT000H.grib2 2026-04-11 16:08 1.0M
20260411T12Z_MSC_GDPS_WindV_IsbL-0100_LatLon0.15_PT000H.grib2 2026-04-11 16:08 862K
20260411T12Z_MSC_GDPS_WindV_IsbL-0150_LatLon0.15_PT000H.grib2 2026-04-11 16:08 1.0M
20260411T12Z_MSC_GDPS_WindV_IsbL-0175_LatLon0.15_PT000H.grib2 2026-04-11 16:08 812K
20260411T12Z_MSC_GDPS_WindV_IsbL-0200_LatLon0.15_PT000H.grib2 2026-04-11 16:08 843K
20260411T12Z_MSC_GDPS_WindV_IsbL-0225_LatLon0.15_PT000H.grib2 2026-04-11 16:08 914K
20260411T12Z_MSC_GDPS_WindV_IsbL-0250_LatLon0.15_PT000H.grib2 2026-04-11 16:08 917K
20260411T12Z_MSC_GDPS_WindV_IsbL-0275_LatLon0.15_PT000H.grib2 2026-04-11 16:08 944K
20260411T12Z_MSC_GDPS_WindV_IsbL-0300_LatLon0.15_PT000H.grib2 2026-04-11 16:08 937K
20260411T12Z_MSC_GDPS_WindV_IsbL-0350_LatLon0.15_PT000H.grib2 2026-04-11 16:08 952K
20260411T12Z_MSC_GDPS_WindV_IsbL-0400_LatLon0.15_PT000H.grib2 2026-04-11 16:08 899K
20260411T12Z_MSC_GDPS_WindV_IsbL-0450_LatLon0.15_PT000H.grib2 2026-04-11 16:08 1.1M
20260411T12Z_MSC_GDPS_WindV_IsbL-0500_LatLon0.15_PT000H.grib2 2026-04-11 16:08 1.1M
20260411T12Z_MSC_GDPS_WindV_IsbL-0550_LatLon0.15_PT000H.grib2 2026-04-11 16:08 1.1M
20260411T12Z_MSC_GDPS_WindV_IsbL-0600_LatLon0.15_PT000H.grib2 2026-04-11 16:08 1.1M
20260411T12Z_MSC_GDPS_WindV_IsbL-0650_LatLon0.15_PT000H.grib2 2026-04-11 16:08 1.2M
20260411T12Z_MSC_GDPS_WindV_IsbL-0700_LatLon0.15_PT000H.grib2 2026-04-11 16:08 1.2M
20260411T12Z_MSC_GDPS_WindV_IsbL-0750_LatLon0.15_PT000H.grib2 2026-04-11 16:08 1.3M
20260411T12Z_MSC_GDPS_WindV_IsbL-0800_LatLon0.15_PT000H.grib2 2026-04-11 16:08 1.4M
20260411T12Z_MSC_GDPS_WindV_IsbL-0850_LatLon0.15_PT000H.grib2 2026-04-11 16:08 1.4M
20260411T12Z_MSC_GDPS_WindV_IsbL-0875_LatLon0.15_PT000H.grib2 2026-04-11 16:08 1.4M
20260411T12Z_MSC_GDPS_WindV_IsbL-0900_LatLon0.15_PT000H.grib2 2026-04-11 16:08 1.4M
20260411T12Z_MSC_GDPS_WindV_IsbL-0925_LatLon0.15_PT000H.grib2 2026-04-11 16:08 1.4M
20260411T12Z_MSC_GDPS_WindV_IsbL-0950_LatLon0.15_PT000H.grib2 2026-04-11 16:08 1.4M
20260411T12Z_MSC_GDPS_WindV_IsbL-0970_LatLon0.15_PT000H.grib2 2026-04-11 16:08 1.4M
20260411T12Z_MSC_GDPS_WindV_IsbL-0985_LatLon0.15_PT000H.grib2 2026-04-11 16:08 1.4M
20260411T12Z_MSC_GDPS_WindV_IsbL-1000_LatLon0.15_PT000H.grib2 2026-04-11 16:08 1.4M
20260411T12Z_MSC_GDPS_WindV_IsbL-1015_LatLon0.15_PT000H.grib2 2026-04-11 16:08 1.4M